Weather History for Fairbanks, AK

Change the Weather History Date:

Thursday, June 20, 2013

  Actual Average Record
Temperature  
Mean Temperature 72 °F 62 °F  
Max Temperature 86 °F 73 °F 92 °F (1958)
Min Temperature 57 °F 51 °F 32 °F (1919)
Degree Days  
Heating Degree Days 0 4  
Month to date heating degree days 71 126  
Since 1 June heating degree days 71 126  
Since 1 July heating degree days 14876 13635  
Cooling Degree Days 7 1  
Month to date cooling degree days 52 7  
Year to date cooling degree days 65 8  
Since 1 June cooling degree days 52 7  
Growing Degree Days 22 (Base 50)    
Moisture  
Dew Point 44 °F    
Average Humidity 37    
Maximum Humidity 72    
Minimum Humidity 15    
Precipitation  
Precipitation T in 0.04 in 0.65 in (1950)
Month to date precipitation 0.34 0.81  
Year to date precipitation 2.68 2.97  
Snow  
Snow 0.00 in 0.00 in 0.00 in (2002)
Month to date snowfall 0.0 0.0  
Since 1 June snowfall 0.0 0.0  
Since 1 July snowfall 68.6 65.0  
Snow Depth 0.00 in    
Sea Level Pressure  
Sea Level Pressure 29.84 in    
Wind  
Wind Speed 3 mph (NE)    
Max Wind Speed 14 mph    
Max Gust Speed 25 mph    
Visibility 10 miles    
Events Rain , Thunderstorm    
T = Trace of Precipitation, MM = Missing Value Source: NWS Daily Summary

Daily Weather History Graph

Daily Weather History Graph

Search for Another Location

Airport:

Trip Planner

Search our weather history database for the weather conditions in past years. The results will help you decide how hot, cold, wet, or windy it might be!

Date:

Astronomy

Jun. 20, 2013 Rise Set
Actual Time 2:59 AM AKDT 12:47 AM AKDT
Civil Twilight Sun does not rise Sun does not rise
Nautical Twilight Sun does not rise Sun does not rise
Astronomical Twilight Sun does not rise Sun does not rise
Moon 8:41 PM AKDT (6/20) 2:11 AM AKDT (6/20)
Length of Visible Light 24h 00m
Length of Day
21h 47m
Waxing Gibbous, 90% of the Moon is Illuminated
Jun 20
Waxing Gibbous
Jun 23
Full
Jun 29
Last Quarter
Jul 7
New
Jul 15
First Quarter

Hourly Weather History & Observations

Time (AKDT) Temp. Dew Point Humidity Pressure Visibility Wind Dir Wind Speed Gust Speed Precip Events Conditions
12:53 AM 66.0 °F 51.1 °F 59% 29.83 in 10.0 mi Calm Calm - N/A   Scattered Clouds
1:53 AM 63.0 °F 54.0 °F 72% 29.85 in 10.0 mi Calm Calm - N/A   Scattered Clouds
2:53 AM 61.0 °F 46.9 °F 60% 29.86 in 10.0 mi ENE 3.5 mph - N/A   Scattered Clouds
3:53 AM 57.9 °F 46.0 °F 65% 29.87 in 10.0 mi NE 4.6 mph - N/A   Mostly Cloudy
4:53 AM 57.9 °F 46.0 °F 65% 29.88 in 10.0 mi ENE 3.5 mph - N/A   Scattered Clouds
5:53 AM 61.0 °F 48.9 °F 64% 29.89 in 10.0 mi ENE 4.6 mph - N/A   Mostly Cloudy
6:53 AM 63.0 °F 48.9 °F 60% 29.91 in 10.0 mi East 3.5 mph - N/A   Scattered Clouds
7:53 AM 66.0 °F 48.9 °F 54% 29.91 in 10.0 mi Calm Calm - N/A   Scattered Clouds
8:53 AM 69.1 °F 48.0 °F 47% 29.91 in 10.0 mi Calm Calm - N/A   Partly Cloudy
9:53 AM 73.0 °F 44.1 °F 35% 29.91 in 10.0 mi Calm Calm - N/A   Partly Cloudy
10:53 AM 75.0 °F 45.0 °F 34% 29.91 in 10.0 mi ESE 5.8 mph - N/A   Partly Cloudy
11:53 AM 77.0 °F 46.0 °F 33% 29.89 in 10.0 mi Variable 3.5 mph - N/A   Partly Cloudy
12:53 PM 80.1 °F 43.0 °F 27% 29.88 in 10.0 mi Variable 4.6 mph - N/A   Partly Cloudy
1:53 PM 81.0 °F 41.0 °F 24% 29.86 in 10.0 mi South 6.9 mph - N/A   Partly Cloudy
2:53 PM 82.0 °F 39.9 °F 22% 29.85 in 10.0 mi South 4.6 mph - N/A   Partly Cloudy
3:53 PM 82.0 °F 42.1 °F 24% 29.84 in 10.0 mi Variable 3.5 mph - N/A   Partly Cloudy
4:53 PM 84.0 °F 41.0 °F 22% 29.82 in 10.0 mi Calm Calm - N/A   Scattered Clouds
5:53 PM 84.0 °F 41.0 °F 22% 29.80 in 10.0 mi WSW 4.6 mph - N/A   Scattered Clouds
6:53 PM 84.9 °F 37.0 °F 18% 29.79 in 10.0 mi Calm Calm - N/A   Scattered Clouds
7:53 PM 84.0 °F 39.0 °F 20% 29.78 in 10.0 mi Variable 5.8 mph - N/A   Scattered Clouds
8:53 PM 84.0 °F 45.0 °F 25% 29.77 in 10.0 mi North 4.6 mph - N/A   Scattered Clouds
9:53 PM 82.0 °F 42.1 °F 24% 29.77 in 9.0 mi Calm Calm - N/A   Scattered Clouds
10:53 PM 79.0 °F 45.0 °F 30% 29.77 in 10.0 mi NW 5.8 mph - N/A   Mostly Cloudy
11:42 PM 80.1 °F 39.9 °F 24% 29.76 in 10.0 mi NW 13.8 mph 25.3 mph 0.00 in Rain , Thunderstorm Light Thunderstorms and Rain
11:53 PM 79.0 °F 42.1 °F 27% 29.76 in 10.0 mi WNW 6.9 mph - 0.00 in Rain , Thunderstorm Light Thunderstorms and Rain